STARLINK-1653, 46352

Orbit data source: Space-Track

STARLINK-1653, 46352 is a payload satellite owned by SpaceX/Seattle (US) in LEO that was launched on Thu, 03 Sep 2020 UTC via an FALCON 9 launch vehicle from the Air Force Eastern Test Range (AFETR). Payload-class satellites include a variety of spacecraft equipped with specific instruments for various scientific and technological missions. These include communications satellites like Starlink; space stations such as the ISS; scientific satellites like the Hubble; Earth observation satellites from companies like Planet Labs, Umbra, and HawkEye 360; GPS; miniature CubeSats for education and research; and military/defense satellites.

Loading next visibility...
Identifier
46352, 2020-062AD
Orbit
LEO
Country
Flag of USUS
Related business
Manufacturer
SpaceX/Seattle
Mission
Partially operational Commercial Communications
Bus & Motor
STARLINK, Unknown motor
Mass
260 kg wet, ~248 kg dry
Launch date (UTC)
2020-09-03 (6 years ago)
Launch vehicle
FALCON 9
Launch site
Air Force Eastern Test Range (AFETR)
Object type
Payload
Rocket body
Debris
Shape & HBR
Box + 1 Pan, 10.1 m
Radar Cross Section
13.562 m², Large (>1 m²)

Expand to show TLE details & history
Last TLE update: 10 hours ago

TLE from 10 hours ago
0 STARLINK-1653
1 46352U 20062AD  26207.66671296  .00331520  54388-4  83558-3 0  9998
2 46352  53.0316 350.9341 0009159 330.6957 189.3571 15.95035634  6003
Epoch: 2026-07-26T16:00Z
TLE epoch observation values (Epoch: 2026-07-26T16:00:03.999Z)
Latitude
15.84957°
Longitude
-25.71187°
Altitude
294.46 km
Speed
7.73 km/s
True Right ascension
10h 34m 39s
True Declination
15° 45' 12"
Sunlit
Object was in daylight at epoch
Visualization orbit readout
Latitude
Unknown
Longitude
Unknown
Altitude
Unknown
Speed
Unknown
Apparent Right ascension
Unknown
Apparent Declination
Unknown
Sunlit
N/A
Visualization observer readout
Local Sidereal Time
14:57:35
Azimuth
Unknown
Elevation
Unknown
Doppler factor
Unknown
Orbital elements
Apogee altitude
294.606 km
Perigee altitude
282.394 km
Semi-major axis
6,666.637 km
Eccentricity
0.00092
Inclination
53.0316°
RAAN
350.9341°
Arg. of periapsis
330.6957°
True anomaly
189.34006°
Mean anomaly
189.3571°
Eccentric anomaly
189.34858°
Mean motion
3.98734 °/min
Orbital period
90.29 mins
BSTAR
0.00083558
Loading maneuver chart data...
Computing Atmospheric mass density...

Documentation

Showing up to 5 results
|